Location: Unspecified
(0.0000°N, 0.0000°E)
Time: 04:23:23
(UTC+00:00)

Explorer 7 - Pass Details

Date: 07 October 2020
Orbit: 484 x 678 km, 50.3° (Epoch: 28 October)

Event Time Altitude Azimuth Distance (km) Brightness Sun altitude
Rises 18:42:04 0° 224° (SW) 2,545 11.1 -13.5°
Reaches altitude 10° 18:44:15 10° 229° (SW) 1,672 10.1 -14.1°
Maximum altitude 18:47:56 54° 307° (NW) 607 7.3 -15.0°
Enters shadow 18:51:30 12° 24° (NNE) 1,631 8.9 -15.9°
Drops below altitude 10° 18:51:45 10° 25° (NNE) 1,731 - -15.9°
Sets 18:54:02 0° 30° (NNE) 2,645 - -16.5°
